Tracking 23940 objects as of 1-Dec-2021
HD Live streaming from Space Station
objects crossing your sky now

PEGASUS DEB

Track PEGASUS DEB now!
10-day predictions


NORAD ID: 24996
Int'l Code: 1994-029ADD
Perigee: 576.0 km
Apogee: 1,058.9 km
Inclination: 82.2 °
Period: 101.1 minutes
Semi major axis: 7188 km
RCS: 0.0119 m2 (small)
Launch date: May 19, 1994
Source: United States (US)
Launch site: AIR FORCE WESTERN TEST RANGE (AFWTR)

Note: This is SATELLITE DEBRIS
aabbcc
Your satellite tracking list
Your tracking list is empty




NASA's NSSDC Master Catalog

Two Line Element Set (TLE):
1 24996U 94029ADD 21334.63974090  .00002931  00000-0  69511-3 0  9995
2 24996  82.1933  96.0814 0335917 110.9462 252.8012 14.24463184258256
Source of the keplerian elements: AFSPC